Stations météo

réclame
Mon MeteoGroup
Loch Glascarnoch, Grande-Bretagne (3031): Température de l'air & dewpoint: 10.08.2018 20:00:00 - 16.08.2018 20:00:00 (BST)Loch Glascarnoch, Grande-Bretagne (3031): Température de l'air -20cm & Température de l'air -100cm: 10.08.2018 20:00:00 - 16.08.2018 20:00:00 (BST)Loch Glascarnoch, Grande-Bretagne (3031): Vitesse du vent & gusts: 10.08.2018 20:00:00 - 16.08.2018 20:00:00 (BST)Loch Glascarnoch, Grande-Bretagne (3031): Direction du vent: 10.08.2018 20:00:00 - 16.08.2018 20:00:00 (BST)Loch Glascarnoch, Grande-Bretagne (3031): reduced air pressure: 10.08.2018 20:00:00 - 16.08.2018 20:00:00 (BST)Loch Glascarnoch, Grande-Bretagne (3031): visibility: 10.08.2018 20:00:00 - 16.08.2018 20:00:00 (BST)Loch Glascarnoch, Grande-Bretagne (3031): Ensoleillement: 10.08.2018 20:00:00 - 16.08.2018 20:00:00 (BST)Loch Glascarnoch, Grande-Bretagne (3031): Quantités de précipitations: 10.08.2018 20:00:00 - 16.08.2018 20:00:00 (BST)
Date & Time tt [°C] td [°C] tt -20cm [°C] tt -100cm [°C] ff [km/h] ff [knt] fx [km/h] fx [knt] dd ppp [hPa] vv [km] sd [min] rr [mm]
16.08.2018 20:00:00 11,3 8,7 - - 18 10 - - WNW 1004,9 45 0 0,2
16.08.2018 19:00:00 11,2 9,1 - - 22 12 - - W 1004,7 20 0 0,4
16.08.2018 18:00:00 12,3 8,9 - - 26 14 - - WSW 1004,0 13 12 0,0
16.08.2018 17:00:00 13,9 8,1 - - 24 13 - - W 1003,5 50 36 0,0
16.08.2018 16:00:00 11,6 9,8 - - 22 12 - - W 1003,8 40 6 0,8
16.08.2018 15:00:00 13,2 9,3 - - 24 13 - - W 1003,0 20 18 0,2
16.08.2018 14:00:00 13,1 10,2 - - 16 9 - - W 1002,6 40 6 0,4
16.08.2018 13:00:00 12,2 9,9 - - 11 6 - - WNW 1002,4 30 12 1,8
16.08.2018 12:00:00 13,0 9,9 - - 15 8 - - SSW 1001,9 40 6 0,2
16.08.2018 11:00:00 11,2 9,5 - - 13 7 - - SW 1002,0 14 18 0,6
16.08.2018 10:00:00 12,9 9,1 14,2 13,7 15 8 - - SW 1001,5 30 24 0,0
16.08.2018 09:00:00 10,8 9,0 - - 16 9 - - SW 1001,5 8 0 0,0
16.08.2018 08:00:00 10,8 8,2 - - 21 11 - - SW 1001,3 35 0 0,0
16.08.2018 07:00:00 10,6 8,3 - - 11 6 - - WSW 1001,3 40 0 1,0
16.08.2018 06:00:00 10,6 8,3 - - 16 9 - - SSW 1001,1 6 0 0,0
16.08.2018 05:00:00 10,8 8,4 - - 18 10 - - SSW 1001,4 30 0 0,4
16.08.2018 04:00:00 10,7 8,1 - - 16 9 - - SW 1001,6 5 0 0,0
16.08.2018 03:00:00 10,9 7,4 - - 9 5 - - S 1002,0 8 0 0,0
16.08.2018 02:00:00 10,0 7,0 - - 4 2 - - S 1002,5 24 0 0,0
16.08.2018 01:00:00 9,2 6,0 - - 2 1 - - SW 1002,7 18 - 0,0
16.08.2018 00:00:00 10,6 6,8 - - 4 2 - - NNW 1002,5 17 0 0,0
15.08.2018 23:00:00 11,7 7,1 - - 24 13 - - WSW 1002,2 19 0 0,0
15.08.2018 22:00:00 12,3 8,3 - - 18 10 68 37 W 1001,9 19 0 0,0
15.08.2018 21:00:00 12,4 9,6 - - 26 14 65 35 WSW 1001,2 35 0 0,4
15.08.2018 20:00:00 13,3 9,5 - - 41 22 80 43 SW 1000,9 40 0 0,0
15.08.2018 19:00:00 13,2 8,8 - - 35 19 63 34 SW 1001,4 45 18 0,0
15.08.2018 18:00:00 13,8 7,9 - - 39 21 61 33 SW 1001,5 35 18 0,0
15.08.2018 17:00:00 14,3 7,5 - - 31 17 57 31 SW 1002,2 50 6 0,0
15.08.2018 16:00:00 14,1 9,8 - - 26 14 65 35 SW 1003,1 27 0 0,0
15.08.2018 15:00:00 13,0 9,3 - - 34 18 61 33 SW 1003,8 29 0 0,2
15.08.2018 14:00:00 13,6 9,6 - - 31 17 57 31 SW 1004,1 30 0 0,0
15.08.2018 13:00:00 14,2 9,7 - - 31 17 48 26 SW 1004,3 40 0 0,0
15.08.2018 12:00:00 13,8 10,1 - - 21 11 50 27 SW 1004,5 35 0 0,0
15.08.2018 11:00:00 14,4 11,6 - - 22 12 - - WSW 1004,6 50 6 0,4
15.08.2018 10:00:00 15,2 11,5 14,4 13,7 21 11 - - WSW 1004,5 45 0 0,0
15.08.2018 09:00:00 14,3 12,6 - - 11 6 - - SSW 1004,5 50 0 0,0
15.08.2018 08:00:00 12,6 12,4 - - 4 2 - - ENE 1004,8 14 0 0,2
15.08.2018 07:00:00 12,1 11,9 - - 9 5 - - E 1005,1 5 0 1,0
15.08.2018 06:00:00 12,3 11,7 - - 15 8 - - E 1005,1 3,6 0 0,2
15.08.2018 05:00:00 13,0 11,4 - - 11 6 - - SW 1005,3 18 0 0,0
15.08.2018 04:00:00 13,4 11,0 - - 15 8 - - WSW 1006,1 50 0 0,0
15.08.2018 03:00:00 13,0 10,3 - - 11 6 - - W 1006,3 45 0 0,0
15.08.2018 02:00:00 13,3 10,1 - - 18 10 - - W 1007,4 50 0 0,0
15.08.2018 01:00:00 13,1 8,9 - - 5 3 - - NNE 1007,6 50 - 0,0
15.08.2018 00:00:00 13,0 8,6 - - 4 2 - - WSW 1008,3 50 0 0,0
14.08.2018 23:00:00 13,1 8,6 - - 21 11 - - WSW 1008,4 50 0 0,0
14.08.2018 22:00:00 13,0 9,8 - - 18 10 - - WSW 1008,7 45 0 0,0
14.08.2018 21:00:00 13,3 9,1 - - 18 10 - - W 1008,4 50 0 0,0
14.08.2018 20:00:00 14,7 10,0 - - 21 11 - - WSW 1008,2 50 0 0,0
14.08.2018 19:00:00 15,5 11,0 - - 26 14 - - WSW 1007,4 30 6 0,0
14.08.2018 18:00:00 16,5 11,9 - - 24 13 - - WSW 1007,1 40 36 0,0
14.08.2018 17:00:00 17,1 12,8 - - 26 14 46 25 WSW 1007,0 45 24 0,0
14.08.2018 16:00:00 16,7 13,7 - - 26 14 - - WSW 1006,9 6 18 0,0
14.08.2018 15:00:00 17,1 14,3 - - 21 11 - - SW 1006,9 19 24 0,0
14.08.2018 14:00:00 16,3 14,0 - - 21 11 - - SW 1007,0 24 0 0,2
14.08.2018 13:00:00 15,5 13,1 - - 15 8 46 25 SSW 1007,3 50 0 0,0
14.08.2018 12:00:00 14,5 12,6 - - 16 9 - - SW 1007,8 18 0 0,4
14.08.2018 11:00:00 13,3 12,1 - - 5 3 - - SSW 1008,1 11 0 1,2
14.08.2018 10:00:00 13,7 11,4 14,2 13,7 9 5 - - SW 1008,1 45 0 0,0
14.08.2018 09:00:00 13,5 11,3 - - 21 11 - - WSW 1008,1 9 0 0,0
14.08.2018 08:00:00 13,9 11,8 - - 9 5 - - SW 1007,8 45 0 0,0
14.08.2018 07:00:00 13,0 11,2 - - 8 4 - - SSW 1008,2 50 0 0,0
14.08.2018 06:00:00 12,6 10,7 - - 8 4 - - WSW 1008,5 50 0 0,0
14.08.2018 05:00:00 13,3 10,9 - - 9 5 - - WSW 1008,6 50 0 0,0
14.08.2018 04:00:00 13,1 10,9 - - 13 7 - - SSW 1008,6 50 0 0,0
14.08.2018 03:00:00 13,0 10,7 - - 4 2 - - SE 1008,6 50 0 0,0
14.08.2018 02:00:00 12,6 10,8 - - 8 4 - - SW 1009,4 50 0 0,0
14.08.2018 01:00:00 12,9 10,7 - - 16 9 - - SSW 1009,4 50 - 0,0
14.08.2018 00:00:00 13,2 10,5 - - 16 9 - - WSW 1009,5 45 0 0,0
13.08.2018 23:00:00 13,0 11,8 - - 5 3 - - WSW 1009,4 50 0 0,0
13.08.2018 22:00:00 13,5 12,6 - - 4 2 - - W 1009,3 50 0 0,0
13.08.2018 21:00:00 13,5 13,1 - - 4 2 - - SW 1009,0 50 0 0,0
13.08.2018 20:00:00 13,7 13,4 - - 9 5 - - WNW 1008,7 45 0 0,0
13.08.2018 19:00:00 14,7 13,5 - - 4 2 - - NW 1008,4 40 0 0,0
13.08.2018 18:00:00 15,1 13,5 - - 5 3 - - ENE 1008,3 45 0 0,0
13.08.2018 17:00:00 14,6 13,1 - - 8 4 - - E 1008,7 24 0 0,0
13.08.2018 16:00:00 14,7 13,1 - - 11 6 - - E 1008,7 12 0 0,0
13.08.2018 15:00:00 14,6 12,9 - - 13 7 - - E 1008,7 45 0 0,0
13.08.2018 14:00:00 14,2 12,5 - - 15 8 - - ESE 1008,8 45 0 0,0
13.08.2018 13:00:00 13,9 12,3 - - 13 7 - - ESE 1008,8 50 0 0,0
13.08.2018 12:00:00 13,5 12,2 - - 13 7 - - ESE 1008,8 45 0 0,0
13.08.2018 11:00:00 13,1 12,1 - - 11 6 - - E 1008,6 45 0 0,0
13.08.2018 10:00:00 12,7 12,1 14,0 13,7 8 4 - - E 1008,7 5 0 0,2
13.08.2018 09:00:00 12,2 11,3 - - 5 3 - - SSE 1008,7 40 0 0,0
13.08.2018 08:00:00 11,8 11,4 - - 11 6 - - SE 1008,4 12 0 0,2
13.08.2018 07:00:00 11,5 11,1 - - 8 4 - - SE 1008,2 7 0 0,4
13.08.2018 06:00:00 11,6 10,7 - - 2 1 - - SSE 1008,1 5 0 0,0
13.08.2018 05:00:00 12,0 10,7 - - 13 7 - - SE 1008,1 50 0 0,0
13.08.2018 04:00:00 11,9 10,8 - - 11 6 - - SE 1008,4 50 0 0,0
13.08.2018 03:00:00 11,6 10,8 - - 11 6 - - SE 1008,6 50 0 0,2
13.08.2018 02:00:00 11,5 10,9 - - 11 6 - - ESE 1008,8 23 0 0,6
13.08.2018 01:00:00 11,5 10,8 - - 13 7 - - ESE 1009,0 35 - 0,2
13.08.2018 00:00:00 11,3 10,8 - - 8 4 - - ESE 1009,3 40 0 0,4
12.08.2018 23:00:00 11,3 10,6 - - 8 4 - - ESE 1009,5 17 0 1,4
12.08.2018 22:00:00 11,5 10,5 - - 21 11 - - E 1009,5 17 0 0,8
12.08.2018 21:00:00 11,3 10,5 - - 21 11 - - ESE 1009,5 10 0 0,6
12.08.2018 20:00:00 11,5 10,1 - - 24 13 - - E 1009,5 9 0 0,2
12.08.2018 19:00:00 12,3 11,2 - - 21 11 - - E 1009,2 16 0 1,4
12.08.2018 18:00:00 12,5 11,4 - - 18 10 - - E 1009,2 12 0 0,8
12.08.2018 17:00:00 12,9 11,6 - - 22 12 - - E 1009,2 30 0 1,0
12.08.2018 16:00:00 13,2 11,1 - - 22 12 - - E 1009,3 45 0 0,0
12.08.2018 15:00:00 13,0 11,1 - - 24 13 - - E 1009,5 29 0 0,6
12.08.2018 14:00:00 13,0 10,9 - - 24 13 - - E 1009,5 28 0 0,2
12.08.2018 13:00:00 13,5 10,2 - - 22 12 - - E 1009,6 40 0 0,0
12.08.2018 12:00:00 13,6 10,3 - - 28 15 - - E 1009,7 35 0 0,0
12.08.2018 11:00:00 13,8 10,0 - - 29 16 - - E 1009,6 50 0 0,0
12.08.2018 10:00:00 13,4 9,6 14,4 13,7 34 18 - - E 1009,7 35 0 0,0
12.08.2018 09:00:00 13,0 9,1 - - 26 14 - - E 1009,6 40 0 0,0
12.08.2018 08:00:00 12,2 8,5 - - 18 10 - - ESE 1009,7 45 0 0,0
12.08.2018 07:00:00 12,0 8,0 - - 18 10 - - SE 1009,6 50 6 0,0
12.08.2018 06:00:00 12,1 7,7 - - 13 7 - - ESE 1009,8 50 0 0,0
12.08.2018 05:00:00 11,7 8,5 - - 13 7 - - SE 1010,1 50 0 0,0
12.08.2018 04:00:00 11,6 8,3 - - 9 5 - - SE 1010,7 50 0 0,0
12.08.2018 03:00:00 11,6 8,9 - - 13 7 - - SE 1011,4 50 0 0,0
12.08.2018 02:00:00 11,8 9,0 - - 11 6 - - SE 1012,1 50 0 0,0
12.08.2018 01:00:00 11,7 8,7 - - 8 4 - - SE 1012,6 50 - 0,0
12.08.2018 00:00:00 11,5 8,1 - - 11 6 - - SE 1013,5 45 0 0,0
11.08.2018 23:00:00 11,4 7,4 - - 11 6 - - SE 1014,1 50 0 0,0
11.08.2018 22:00:00 11,3 7,1 - - 13 7 - - ESE 1014,5 50 0 0,0
11.08.2018 21:00:00 12,5 8,0 - - 11 6 - - SE 1014,6 45 0 0,0
11.08.2018 20:00:00 13,7 7,3 - - 8 4 - - SE 1014,9 45 0 0,0
11.08.2018 19:00:00 14,6 5,9 - - 13 7 - - ESE 1015,0 50 0 0,0
11.08.2018 18:00:00 14,8 6,1 - - 11 6 - - E 1015,3 50 0 0,0
11.08.2018 17:00:00 15,4 5,7 - - 8 4 - - E 1015,5 50 0 0,0
11.08.2018 16:00:00 14,8 5,8 - - 9 5 - - SW 1016,2 45 12 0,0
11.08.2018 15:00:00 15,0 5,5 - - 11 6 - - S 1016,7 45 0 0,0
11.08.2018 14:00:00 14,9 5,3 - - 5 3 - - W 1016,9 35 0 0,0
11.08.2018 13:00:00 14,0 3,3 - - 5 3 - - W 1017,4 40 0 0,0
11.08.2018 12:00:00 13,5 4,0 - - 8 4 - - WNW 1017,6 45 0 0,0
11.08.2018 11:00:00 12,8 6,1 - - 8 4 - - WNW 1017,9 45 0 0,0
11.08.2018 10:00:00 12,1 6,8 14,2 13,9 13 7 - - W 1018,2 50 6 0,0
11.08.2018 09:00:00 11,6 7,2 - - 4 2 - - W 1018,4 28 12 0,0
11.08.2018 08:00:00 10,3 8,2 - - 2 1 - - W 1018,5 50 0 0,0
11.08.2018 07:00:00 8,5 7,9 - - 2 1 - - NW 1018,6 45 0 0,0
11.08.2018 06:00:00 7,8 7,2 - - 5 3 - - WNW 1018,6 50 0 0,0
11.08.2018 05:00:00 7,2 5,9 - - 4 2 - - SW 1018,5 50 0 0,0
11.08.2018 04:00:00 8,8 7,9 - - 2 1 - - W 1018,3 50 0 0,0
11.08.2018 03:00:00 8,7 8,0 - - 2 1 - - SSW 1018,5 50 0 0,0
11.08.2018 02:00:00 9,2 8,4 - - 2 1 - - W 1018,6 50 0 0,0
11.08.2018 01:00:00 9,3 8,4 - - 4 2 - - WNW 1018,6 45 - 0,0
11.08.2018 00:00:00 9,8 8,9 - - 8 4 - - NW 1018,5 50 0 0,0
10.08.2018 23:00:00 9,2 8,4 - - 5 3 - - W 1018,4 50 0 0,0
10.08.2018 22:00:00 9,8 8,4 - - 4 2 - - W 1017,9 40 0 0,0
10.08.2018 21:00:00 11,1 8,4 - - 8 4 - - W 1017,2 45 0 0,0
10.08.2018 20:00:00 12,2 8,3 - - 11 6 - - W 1016,6 40 0 0,0

tt = Température de l'air
td = dewpoint
tt -20cm = Température de l'air -20cm
tt -100cm = Température de l'air -100cm
ff = Vitesse du vent
fx = gusts
dd = Direction du vent
ppp = reduced air pressure
vv = visibility
sd = Ensoleillement
rr = Quantités de précipitations

stations d'obs. à proximité